Regional Weather Roundup
Issued by NWS

Home | Current Version | Previous Version | Graphics & Text | Print | Product List | Glossary Off
Versions: 1 2 3 4 5 6 7 8 9 10 11 12 13 14 15 16 17 18 19 20 21 22 23 24 25 26 27 28 29 30 31 32 33 34 35 36 37 38 39 40 41 42 43 44 45 46 47 48 49 50

915
ASUS43 KMKX 270300
RWRWI

WISCONSIN REGIONAL WEATHER ROUNDUP
NATIONAL WEATHER SERVICE MILWAUKEE/SULLIVAN WI
1000 PM CDT FRI AUG 26 2016

NOTE: "FAIR" INDICATES FEW OR NO CLOUDS BELOW 12,000 FEET WITH NO
SIGNIFICANT WEATHER AND/OR OBSTRUCTIONS TO VISIBILITY.

WIZ001-002-006>008-014>016-023>028-270400-
NORTHWEST WISCONSIN

CITY           SKY/WX    TMP DP  RH WIND       PRES   REMARKS
SUPERIOR ARPT  PTCLDY    56  55  93 S5        30.10S
ASHLAND        PTCLDY    57  53  86 S5        30.14S
HAYWARD        MOCLDY    56  54  93 CALM      30.15S
SIREN          CLOUDY    59  56  91 CALM      30.14R
CUMBERLAND     PTCLDY    59  55  88 CALM      30.15S
RICE LAKE      PTCLDY    59  56  89 CALM      30.16S
CHETEK         NOT AVBL
LADYSMITH      PTCLDY    58  55  92 CALM      30.17S
EAU CLAIRE     NOT AVBL
MENOMONIE      CLOUDY    62  59  91 CALM      30.15R
NEW RICHMOND   CLOUDY    61  56  84 CALM      30.15R
OSCEOLA        CLOUDY    62  57  85 CALM      30.16S
$$

WIZ003>005-009-010-017-018-270400-
NORTH CENTRAL WISCONSIN

CITY           SKY/WX    TMP DP  RH WIND       PRES   REMARKS
MANITOWISH WTR NOT AVBL
ARBOR VITAE    PTCLDY    56  54  94 CALM      30.18R
WOODRUFF       PTCLDY    56  54  94 CALM      30.18R
RHINELANDER    MOCLDY    54  54 100 CALM      30.18S
EAGLE RIVER    PTCLDY    54  54 100 CALM      30.17S
LAND O LAKES   PTCLDY    50  49  97 CALM      30.19S
PHILLIPS       CLOUDY    54  54 100 CALM      30.16S
TOMAHAWK       CLOUDY    54  52  95 CALM      30.18R
MEDFORD        CLOUDY    55  55 100 CALM      30.16S
MERRILL        CLOUDY    57  57 100 CALM      30.18S
$$

WIZ029-030-035-036-043>047-270400-
CENTRAL WISCONSIN

CITY           SKY/WX    TMP DP  RH WIND       PRES   REMARKS
WAUSAU         MOCLDY    63  57  81 CALM      30.16R
MOSINEE        CLEAR     61  57  88 CALM      30.18R
MARSHFIELD     CLOUDY    62  57  83 CALM      30.16R
STEVENS POINT  CLOUDY    58  57  95 CALM      30.17R
WAUPACA        CLOUDY    64  63  95 CALM      30.16S
WAUTOMA        CLOUDY    64  61  90 CALM      30.17S
WISC RAPIDS    CLOUDY    61  59  93 CALM      30.18R
CAMP DOUGLAS   NOT AVBL
$$

WIZ011>013-019>022-031-037>040-048>050-270400-
NORTHEAST WISCONSIN

CITY           SKY/WX    TMP DP  RH WIND       PRES   REMARKS
ANTIGO         CLOUDY    58  56  94 CALM      30.18S
SHAWANO        PTCLDY    64  58  81 CALM      30.16S
OCONTO         NOT AVBL
STURGEON BAY   CLOUDY    64  58  80 S5        30.17R
GREEN BAY      CLOUDY    62  62 100 CALM      30.16R
MANITOWOC      NOT AVBL
APPLETON       CLOUDY    66  55  68 CALM      30.16R
CLINTONVILLE   PTCLDY    61  57  88 CALM      30.16S
OSHKOSH        MOCLDY    65  60  84 S3        30.16F
$$

WIZ032>034-041-042-053>061-270400-
SOUTHWEST WISCONSIN

CITY           SKY/WX    TMP DP  RH WIND       PRES   REMARKS
LA CROSSE      LGT RAIN  68  62  81 E3        30.14R
SPARTA         CLOUDY    63  61  93 E3        30.17R
VIROQUA        CLOUDY    63  61  93 NW3       30.16F
BOSCOBEL       LGT RAIN  65  64  97 NE3       30.14S
PRAIRIE DU CHI DRIZZLE   64  62  93 CALM      30.13F
PLATTEVILLE    CLOUDY    66  65  94 NE6       30.14F
$$

WIZ056-057-062-063-064-067-068-270400-
SOUTH CENTRAL WISCONSIN

CITY           SKY/WX    TMP DP  RH WIND       PRES   REMARKS
REEDSBURG      NOT AVBL
BARABOO/DELLS  CLOUDY    64  61  91 CALM      30.16F
LONE ROCK      NOT AVBL
MINERAL POINT  CLOUDY    66  63  88 NE5       30.15S
MADISON        MOCLDY    66  59  78 NE6       30.14F
MIDDLETON      CLOUDY    66  61  84 CALM      30.16F
WATERTOWN      CLOUDY    66  61  82 NE6       30.16S
MONROE         CLOUDY    66  61  82 NE7       30.13F
JANESVILLE     NOT AVBL
$$

WIZ051-052-058>065-066-070>072-270400-
SOUTHEAST WISCONSIN

CITY           SKY/WX    TMP DP  RH WIND       PRES   REMARKS
MILWAUKEE      CLOUDY    69  59  70 NE6       30.15F
WAUKESHA       CLOUDY    64  54  68 E3        30.18S
MILWAUKEE/TIMM PTCLDY    68  54  60 CALM      30.18S
RACINE         CLOUDY    67  59  75 NE5       30.17S
BURLINGTON     CLOUDY    65  60  85 CALM      30.16S
KENOSHA        CLOUDY    65  60  84 NE6       30.15F
FOND DU LAC    CLOUDY    62  59  90 S5        30.17S
SHEBOYGAN      PTCLDY    62  58  86 CALM      30.18R
WEST BEND      CLOUDY    63  59  88 CALM      30.18S
JUNEAU         CLOUDY    65  60  83 E5        30.18S
$$

LSZ147-162-270400-
LAKE SUPERIOR

STATION/POSITION TIME  TEMP    WIND        PRES    WAVE
                       AIR SEA DIR/SP/G            HT/PER
                 (UTC) (F)     (DEG/KT/KT) (MB)    (FT/S)
W MID LAKE BUOY  0150   66 67  170/  4/  6 1020.2R   1
DEVILS ISLAND    0200   64     150/  8/  9 1020.1R
PORT WING        0240   64     140/  3/  7 1020.0R
SAXON HARBOR     0200   60     200/  5/  7 1020.0S
$$

LMZ867-665-643>646-270400-
LAKE MICHIGAN

STATION/POSITION TIME  TEMP    WIND        PRES    WAVE
                       AIR SEA DIR/SP/G            HT/PER
                 (UTC) (F)     (DEG/KT/KT) (MB)    (FT/S)
CHAMBERS ISLAND  0240   66      CALM  /  5 1021.0R
S GREEN BAY BUOY 0200   70 72  230/ 12/ 14 1020.5
N MID LAKE BUOY  0150   69 71  230/  6/  8 1020.4R   1/ 3
NORTHPORT PIER   0200   66     190/  2/  4 1020.3R
SISTER BAY       0137   66     170/  6/  8   N/A
ALGOMA LAKESHORE 0045          210/  6/  8   N/A
KEWAUNEE LAKESHO 0200   62                 1020.8
SHEBOYGAN LAKESH 0200   67     220/  4/  4 1021.3R
PORT WASHINGTON  0200   66     200/  2/  2 1022.4R
ATWATER BUOY     0200   63     350/  2/  4   N/A
MILWAUKEE LAKESH 0210   67      20/  2/  2   N/A
S MID LAKE BUOY  0150   71 75   60/ 10/ 12 1020.6R   1
KENOSHA   LAKESH 0200   71      80/  7/  8 1020.7R
$$

TC  - TEMPERATURE IN CELSIUS
VSB - VISIBILITY IN STATUTE MILES
WCI - WIND CHILL INDEX
HX  - HEAT INDEX





USA.gov is the U.S. government's official web portal to all federal, state and local government web resources and services.